When you browse on this site, cookies collect data to enhance your experience and personalize the content and advertising you see.
Visit our Privacy Policy to learn more. By continuing to use the site, you agree to this use of cookies and data.
  • Em Portugal
  • Lista de países
  • Para 7 dias
  • Temperatura da água
  • Mapas de satélite
  • Mapa do tempo
  • Widgets de tempo
  • user-avatar
    Iniciar Sessão

    Previsão horária em Skowierzyn

    Hoje, 22 Fevereiro, Sexta-feira

    Tempo Temperatura Precipitação Vento Pressão Humidade
    00:00 +4°C° 0.7 mm 3 m/s 751 mmHg 90%
    01:00 +4°C° 0.7 mm 3 m/s 751 mmHg 92%
    02:00 +1°C° 0.5 mm 4 m/s 751 mmHg 90%
    03:00 0°C° 0.5 mm 5 m/s 751 mmHg 88%
    04:00 -3°C° 0.5 mm 6 m/s 752 mmHg 86%
    05:00 -3°C° 0.1 mm 6 m/s 753 mmHg 82%
    06:00 -4°C° 0.1 mm 6 m/s 754 mmHg 78%
    07:00 -5°C° 0.1 mm 6 m/s 755 mmHg 74%
    08:00 -5°C° 0 mm 6 m/s 756 mmHg 68%
    09:00 -6°C° 0 mm 7 m/s 758 mmHg 61%
    10:00 -6°C° 0 mm 7 m/s 759 mmHg 55%
    11:00 -6°C° 0 mm 7 m/s 760 mmHg 53%
    12:00 -4°C° 0 mm 6 m/s 761 mmHg 50%
    13:00 -4°C° 0 mm 6 m/s 761 mmHg 48%
    14:00 -5°C° 0 mm 6 m/s 762 mmHg 47%
    15:00 -5°C° 0 mm 6 m/s 762 mmHg 46%
    16:00 -5°C° 0 mm 6 m/s 763 mmHg 45%
    17:00 -5°C° 0 mm 6 m/s 763 mmHg 46%
    18:00 -6°C° 0 mm 5 m/s 764 mmHg 47%
    19:00 -6°C° 0 mm 5 m/s 765 mmHg 49%
    20:00 -6°C° 0 mm 5 m/s 765 mmHg 48%
    21:00 -6°C° 0 mm 5 m/s 766 mmHg 47%
    22:00 -6°C° 0 mm 5 m/s 766 mmHg 46%
    23:00 -6°C° 0 mm 5 m/s 767 mmHg 46%

    Amanhã, 23 Fevereiro, Sábado

    Tempo Temperatura Precipitação Vento Pressão Humidade
    00:00 -5°C° 0 mm 4 m/s 767 mmHg 47%
    01:00 -5°C° 0 mm 4 m/s 767 mmHg 48%
    02:00 -7°C° 0 mm 4 m/s 767 mmHg 49%
    03:00 -7°C° 0 mm 4 m/s 767 mmHg 51%
    04:00 -7°C° 0 mm 4 m/s 767 mmHg 52%
    05:00 -6°C° 0 mm 3 m/s 767 mmHg 54%
    06:00 -6°C° 0 mm 3 m/s 768 mmHg 55%
    07:00 -6°C° 0 mm 3 m/s 768 mmHg 57%
    08:00 -6°C° 0 mm 3 m/s 768 mmHg 53%
    09:00 -5°C° 0 mm 3 m/s 769 mmHg 49%
    10:00 -4°C° 0 mm 4 m/s 769 mmHg 45%
    11:00 -4°C° 0 mm 3 m/s 769 mmHg 42%
    12:00 -2°C° 0 mm 3 m/s 768 mmHg 39%
    13:00 -1°C° 0 mm 3 m/s 768 mmHg 35%
    14:00 -1°C° 0 mm 3 m/s 768 mmHg 36%
    15:00 -2°C° 0 mm 3 m/s 768 mmHg 37%
    16:00 -2°C° 0 mm 3 m/s 768 mmHg 38%
    17:00 -2°C° 0 mm 2 m/s 768 mmHg 42%
    18:00 -1°C° 0 mm 1 m/s 768 mmHg 45%
    19:00 -2°C° 0 mm 1 m/s 768 mmHg 48%
    20:00 -2°C° 0 mm 1 m/s 768 mmHg 48%
    21:00 -3°C° 0 mm 0 m/s 768 mmHg 48%
    22:00 -3°C° 0 mm 0 m/s 768 mmHg 48%
    23:00 -2°C° 0 mm 1 m/s 768 mmHg 48%

    Depois de amanhã, 24 Fevereiro, Domingo

    Tempo Temperatura Precipitação Vento Pressão Humidade
    00:00 -2°C° 0 mm 1 m/s 767 mmHg 47%
    01:00 -2°C° 0 mm 1 m/s 767 mmHg 47%
    02:00 -1°C° 0 mm 1 m/s 767 mmHg 45%
    03:00 -3°C° 0 mm 2 m/s 766 mmHg 44%
    04:00 -3°C° 0 mm 2 m/s 766 mmHg 43%
    05:00 -3°C° 0 mm 2 m/s 766 mmHg 42%
    06:00 -2°C° 0 mm 2 m/s 766 mmHg 42%
    07:00 -2°C° 0 mm 2 m/s 766 mmHg 41%
    08:00 -1°C° 0 mm 2 m/s 766 mmHg 39%
    09:00 +1°C° 0 mm 2 m/s 765 mmHg 36%
    10:00 0°C° 0 mm 3 m/s 765 mmHg 33%
    11:00 +1°C° 0 mm 3 m/s 765 mmHg 33%
    12:00 +1°C° 0 mm 3 m/s 765 mmHg 33%
    13:00 +2°C° 0 mm 3 m/s 765 mmHg 34%
    14:00 +2°C° 0 mm 3 m/s 765 mmHg 36%
    15:00 +2°C° 0 mm 3 m/s 764 mmHg 39%
    16:00 +3°C° 0 mm 2 m/s 764 mmHg 42%
    17:00 +2°C° 0 mm 2 m/s 764 mmHg 44%
    18:00 +1°C° 0 mm 2 m/s 764 mmHg 46%
    19:00 -1°C° 0 mm 2 m/s 764 mmHg 49%
    20:00 -1°C° 0 mm 2 m/s 764 mmHg 50%
    21:00 -1°C° 0 mm 2 m/s 764 mmHg 51%
    22:00 -1°C° 0 mm 2 m/s 764 mmHg 52%
    23:00 -1°C° 0 mm 2 m/s 764 mmHg 55%

    25 Fevereiro, Segunda-feira

    Tempo Temperatura Precipitação Vento Pressão Humidade
    00:00 -1°C° 0 mm 2 m/s 764 mmHg 57%
    01:00 -1°C° 0 mm 2 m/s 764 mmHg 60%
    02:00 -1°C° 0 mm 2 m/s 764 mmHg 63%
    03:00 -1°C° 0 mm 2 m/s 764 mmHg 66%
    04:00 -1°C° 0 mm 2 m/s 763 mmHg 70%
    05:00 -1°C° 0 mm 2 m/s 763 mmHg 72%
    06:00 -1°C° 0 mm 3 m/s 763 mmHg 74%
    07:00 -1°C° 0 mm 3 m/s 763 mmHg 76%
    08:00 0°C° 0 mm 3 m/s 763 mmHg 73%
    09:00 +2°C° 0 mm 3 m/s 763 mmHg 71%
    10:00 +3°C° 0 mm 3 m/s 763 mmHg 68%
    11:00 +4°C° 0 mm 4 m/s 763 mmHg 70%
    12:00 +5°C° 0 mm 4 m/s 763 mmHg 71%
    13:00 +6°C° 0 mm 4 m/s 763 mmHg 73%
    14:00 +5°C° 0 mm 4 m/s 763 mmHg 77%
    15:00 +4°C° 0 mm 4 m/s 762 mmHg 82%
    16:00 +3°C° 0 mm 4 m/s 762 mmHg 86%
    17:00 +2°C° 0 mm 3 m/s 763 mmHg 89%
    18:00 +1°C° 0 mm 3 m/s 763 mmHg 92%
    19:00 +1°C° 0 mm 2 m/s 763 mmHg 95%
    20:00 +1°C° 0 mm 2 m/s 763 mmHg 95%
    21:00 -1°C° 0 mm 2 m/s 762 mmHg 94%
    22:00 -1°C° 0 mm 2 m/s 762 mmHg 94%
    23:00 +1°C° 0 mm 2 m/s 762 mmHg 94%

    26 Fevereiro, Terça-feira

    Tempo Temperatura Precipitação Vento Pressão Humidade
    00:00 +1°C° 0 mm 2 m/s 761 mmHg 93%
    01:00 +1°C° 0 mm 2 m/s 761 mmHg 93%
    02:00 0°C° 0 mm 3 m/s 760 mmHg 93%
    03:00 0°C° 0 mm 3 m/s 760 mmHg 93%
    04:00 0°C° 0 mm 3 m/s 759 mmHg 93%
    05:00 -1°C° 0 mm 4 m/s 758 mmHg 90%
    06:00 0°C° 0 mm 4 m/s 758 mmHg 87%
    07:00 0°C° 0 mm 4 m/s 757 mmHg 84%
    08:00 +1°C° 0 mm 5 m/s 757 mmHg 80%
    09:00 +2°C° 0 mm 5 m/s 756 mmHg 75%
    10:00 +3°C° 0 mm 5 m/s 756 mmHg 71%
    11:00 +4°C° 0 mm 6 m/s 756 mmHg 70%
    12:00 +5°C° 0 mm 6 m/s 756 mmHg 68%
    13:00 +6°C° 0 mm 7 m/s 756 mmHg 67%
    14:00 +7°C° 0 mm 6 m/s 756 mmHg 67%
    15:00 +7°C° 0 mm 6 m/s 756 mmHg 66%
    16:00 +7°C° 0 mm 5 m/s 756 mmHg 66%
    17:00 +6°C° 0 mm 5 m/s 756 mmHg 68%
    18:00 +5°C° 0 mm 5 m/s 756 mmHg 69%
    19:00 +3°C° 0 mm 6 m/s 756 mmHg 71%
    20:00 +3°C° 0 mm 6 m/s 756 mmHg 69%
    21:00 +2°C° 0 mm 6 m/s 756 mmHg 67%
    22:00 +2°C° 0 mm 6 m/s 756 mmHg 65%
    23:00 +1°C° 0 mm 6 m/s 756 mmHg 68%

    27 Fevereiro, Quarta-feira

    Tempo Temperatura Precipitação Vento Pressão Humidade
    00:00 +1°C° 0 mm 5 m/s 756 mmHg 71%
    01:00 0°C° 0 mm 5 m/s 756 mmHg 74%
    02:00 0°C° 0 mm 5 m/s 756 mmHg 77%
    03:00 -1°C° 0 mm 4 m/s 756 mmHg 79%
    04:00 -1°C° 0 mm 4 m/s 756 mmHg 82%
    05:00 -1°C° 0 mm 4 m/s 756 mmHg 82%
    06:00 -1°C° 0 mm 4 m/s 756 mmHg 83%
    07:00 -2°C° 0 mm 4 m/s 756 mmHg 83%
    08:00 0°C° 0 mm 4 m/s 756 mmHg 77%
    09:00 +1°C° 0 mm 4 m/s 756 mmHg 71%
    10:00 +4°C° 0 mm 4 m/s 756 mmHg 65%
    11:00 +5°C° 0 mm 4 m/s 756 mmHg 60%
    12:00 +6°C° 0 mm 4 m/s 755 mmHg 55%
    13:00 +7°C° 0 mm 4 m/s 755 mmHg 50%
    14:00 +7°C° 0 mm 4 m/s 754 mmHg 50%
    15:00 +8°C° 0 mm 3 m/s 754 mmHg 50%
    16:00 +8°C° 0 mm 3 m/s 753 mmHg 51%
    17:00 +7°C° 0 mm 3 m/s 753 mmHg 54%
    18:00 +5°C° 0 mm 3 m/s 752 mmHg 58%
    19:00 +4°C° 0 mm 3 m/s 752 mmHg 62%
    20:00 +4°C° 0 mm 4 m/s 751 mmHg 65%
    21:00 +4°C° 0 mm 4 m/s 750 mmHg 67%
    22:00 +4°C° 0 mm 4 m/s 750 mmHg 70%
    23:00 +5°C° 0 mm 4 m/s 749 mmHg 76%
    Mostrar mais